Theta_e
334 334 333 333 332 331 330 330 330 329 329 329 329 329 325 321 320 320 320 319 319 319 319 319 319 318 317 315 315 315 315 315 315 314 314 313 312 310 307 305 306 306 305 304 304 304 303 303 301 300 300 299 298 297 297 298 299 301 303 304 304 302 301 300 299 300 299 299 299 300 300 301 302 303 304 307 309 311 313 314 316 317 317 316 316
333 333 333 332 331 330 329 329 329 328 328 329 328 325 321 319 320 320 319 319 319 319 319 319 319 318 317 315 315 315 315 315 315 314 314 313 312 309 305 301 301 301 300 299 300 300 300 300 299 299 298 298 298 297 297 297 297 299 300 300 300 299 299 299 299 299 299 299 299 300 300 300 301 301 302 304 307 309 311 312 314 315 315 315 315
333 333 332 332 331 329 328 328 328 328 328 327 324 321 319 320 320 320 320 319 319 319 319 318 318 318 317 315 315 315 315 315 315 314 314 313 311 307 302 299 298 298 297 297 298 299 298 298 299 299 298 298 298 298 297 297 298 299 299 299 299 299 299 299 299 300 300 300 300 300 300 300 301 301 301 302 304 305 308 309 311 312 312 313 313
333 333 332 331 330 328 328 327 326 327 326 323 320 319 320 320 319 320 319 319 319 319 318 318 318 318 317 316 315 315 315 314 314 314 314 313 310 305 300 298 297 297 297 297 298 299 298 299 300 300 299 299 299 299 298 298 299 299 299 299 299 299 299 299 299 299 299 299 300 300 300 301 301 301 301 301 301 302 304 305 306 308 309 310 311
332 332 331 330 328 327 327 326 327 327 324 320 319 320 320 319 319 320 319 319 319 318 318 318 318 317 316 316 316 315 315 314 313 313 312 312 309 304 299 297 297 296 296 297 298 299 299 299 300 301 300 300 300 300 299 299 299 300 300 300 300 299 299 299 299 299 299 299 299 299 300 300 300 301 301 301 301 301 302 303 304 304 305 307 308
332 332 330 329 327 327 326 326 327 326 321 319 319 319 319 319 319 319 319 319 319 318 318 317 316 316 316 316 316 315 315 314 313 312 311 311 308 302 298 297 297 296 296 297 299 300 300 300 300 301 301 302 302 301 300 300 300 300 300 300 300 299 299 299 298 298 298 298 299 299 299 300 300 301 301 301 301 301 301 302 303 303 303 304 306
332 331 329 328 327 327 326 326 326 323 319 319 319 319 319 319 319 319 319 318 318 318 318 316 316 316 315 315 315 315 315 314 312 309 309 308 304 299 297 297 297 296 296 297 299 301 302 302 301 301 302 303 302 302 301 301 300 301 301 301 300 300 299 299 298 298 298 298 299 299 300 300 301 301 301 302 302 302 302 302 302 303 302 303 304
331 330 329 328 327 325 325 324 323 320 318 319 319 318 319 318 318 318 318 318 318 318 317 316 316 315 314 314 314 314 315 313 309 306 306 303 299 297 296 296 296 296 296 297 299 301 303 303 303 302 302 303 303 303 302 301 301 301 301 301 301 300 299 299 298 298 298 298 299 299 299 300 300 301 302 302 303 303 303 303 303 303 303 302 303
330 329 328 327 325 323 322 321 320 318 318 319 319 319 319 318 318 318 318 318 318 317 317 316 315 314 313 312 313 313 313 309 304 302 302 299 297 297 296 296 296 295 296 297 300 303 304 304 303 302 302 303 303 303 302 301 301 301 301 301 301 300 299 299 298 298 298 298 298 298 298 298 299 300 301 302 302 303 303 303 304 304 303 303 303
329 328 327 325 323 321 320 319 318 318 318 318 318 318 318 318 318 318 318 318 317 316 316 315 314 313 312 311 311 311 308 302 299 298 298 296 296 296 296 296 295 295 296 297 300 303 304 304 303 302 302 303 303 303 303 302 301 301 301 301 301 300 300 299 298 298 297 298 298 297 297 297 298 299 300 301 301 302 302 302 302 303 303 303 303
328 327 325 323 321 319 319 318 318 318 318 317 317 318 317 317 317 317 317 317 316 315 314 313 312 311 309 308 307 305 301 298 297 297 296 296 296 296 295 296 295 295 296 297 299 303 304 304 303 302 302 302 303 303 303 302 302 301 301 301 301 301 300 299 299 298 297 297 298 297 297 297 297 298 299 300 300 301 301 301 301 301 301 301 302
327 325 323 321 319 319 318 317 317 318 318 317 317 317 316 316 316 316 316 315 314 313 313 312 310 308 305 303 302 299 297 296 296 296 296 296 296 295 295 296 295 296 295 296 298 301 303 304 304 303 302 302 302 302 303 303 302 301 301 301 301 301 300 300 299 298 297 297 298 298 297 297 296 297 297 298 299 299 300 300 300 300 299 299 300
325 323 321 320 319 318 317 317 317 318 318 317 317 317 316 316 316 316 315 315 313 313 311 308 305 303 301 300 298 297 296 296 296 296 296 296 295 295 296 295 296 296 295 295 296 298 300 302 302 303 302 302 302 302 302 302 302 301 301 301 301 301 301 300 300 298 297 297 298 298 297 297 297 296 297 297 298 298 299 299 299 299 299 299 299
323 321 320 318 318 317 317 317 317 317 317 317 317 317 316 316 316 315 315 314 313 311 307 304 301 300 298 297 297 296 296 296 295 295 296 295 295 295 295 296 296 296 295 295 295 296 297 298 299 301 302 302 302 302 302 302 302 301 301 301 301 301 301 300 300 299 298 298 298 298 297 297 297 297 296 296 297 297 297 298 298 298 298 298 298
322 320 318 318 317 317 316 317 317 316 316 316 316 316 316 316 315 315 314 313 311 307 303 300 299 298 297 297 296 296 296 295 295 295 295 295 295 295 295 295 295 295 295 295 295 295 295 295 296 298 301 302 302 301 301 302 301 301 301 301 301 301 301 300 300 299 298 298 298 298 298 297 297 297 297 297 296 296 296 296 297 297 297 297 297
322 320 318 318 317 317 316 316 316 316 316 316 316 316 316 316 315 314 314 312 307 302 300 298 297 297 296 296 296 296 295 295 295 295 295 295 295 295 295 296 295 295 295 295 295 295 295 295 296 297 300 301 301 301 301 301 301 301 301 301 301 301 301 300 300 299 299 299 299 299 298 297 297 297 297 297 297 296 296 296 296 296 296 297 296
322 319 317 317 317 316 316 316 316 316 316 316 316 316 315 315 314 314 313 309 303 300 298 297 296 296 296 296 296 295 295 295 295 295 295 295 295 295 295 295 295 295 295 295 295 295 295 296 296 297 299 300 300 300 301 301 301 301 301 301 300 300 300 300 300 299 299 299 299 299 298 297 297 297 297 297 297 297 296 296 296 296 295 295 295
321 318 317 317 316 316 316 316 316 316 315 315 315 315 315 315 314 314 312 306 301 298 297 296 296 296 296 296 296 295 295 295 296 296 296 295 295 295 295 295 295 295 295 295 295 294 295 295 296 296 298 299 299 300 300 301 301 301 301 300 300 300 300 300 300 299 299 299 299 298 298 297 297 297 297 297 298 297 297 297 297 296 296 295 295
322 319 318 317 316 316 316 316 316 316 315 315 315 315 315 314 313 312 309 303 299 297 297 296 296 296 295 295 296 296 296 297 299 299 298 296 295 294 295 295 295 295 295 295 294 294 295 295 295 296 297 297 298 299 300 301 301 301 301 300 299 300 300 300 300 299 299 299 299 298 298 298 297 297 297 297 298 298 298 298 297 297 297 296 295
321 320 318 316 316 316 316 316 316 316 316 315 315 315 314 313 313 311 306 300 298 297 296 296 296 296 295 295 297 298 298 300 302 302 300 298 296 295 294 295 295 295 295 294 294 294 295 295 295 295 296 296 296 297 298 300 300 300 300 300 300 299 300 300 300 299 299 299 298 298 298 298 297 297 297 297 298 298 298 298 298 297 297 296 295
320 318 317 316 316 316 316 316 316 316 315 315 315 314 313 313 312 308 302 298 297 296 296 295 295 295 295 296 298 300 301 303 304 303 301 300 297 295 294 294 295 295 294 294 294 294 295 295 295 295 295 295 295 296 297 298 299 300 300 300 300 299 299 299 299 299 298 298 298 298 298 298 297 297 297 297 297 297 297 298 298 297 297 297 296
319 317 316 316 316 316 316 316 316 316 315 315 314 313 312 312 309 304 300 297 296 296 295 295 295 295 295 296 298 300 302 303 303 303 301 300 297 295 294 294 294 294 294 294 294 295 295 295 295 296 295 295 295 295 295 296 298 299 300 300 300 299 299 299 299 298 297 297 297 297 297 298 297 297 297 297 297 297 297 297 298 298 297 297 296
318 316 316 316 316 316 316 316 315 315 315 314 313 312 312 311 307 302 298 297 296 295 295 295 295 295 295 296 298 300 302 302 302 302 302 301 298 296 294 294 294 294 294 294 295 295 295 295 296 296 295 295 294 294 294 295 296 298 299 299 299 299 299 299 298 298 297 297 297 297 297 297 297 297 297 297 297 297 297 297 297 297 297 297 296
317 316 316 316 316 316 316 316 315 315 314 313 313 312 311 310 305 300 298 296 295 295 295 295 295 295 295 295 297 299 300 302 303 303 302 301 299 295 294 294 294 294 294 294 295 295 296 296 296 296 295 295 294 294 294 294 294 295 296 297 298 298 298 297 298 298 297 297 297 297 297 297 297 297 297 297 297 297 297 296 296 296 297 296 295
317 316 316 317 316 316 316 315 315 314 314 313 312 311 311 309 304 299 297 296 295 295 295 295 295 295 295 295 297 298 299 300 302 302 302 300 297 295 294 294 294 294 294 294 295 296 296 296 296 296 295 295 294 294 294 294 294 294 294 295 295 295 295 295 296 296 297 297 297 297 297 297 297 297 297 297 297 297 297 296 296 295 296 296 295
317 317 317 316 316 316 315 315 314 314 313 313 312 312 311 307 301 298 296 295 295 295 295 295 295 295 295 295 295 296 296 297 299 299 299 297 295 294 294 294 294 294 294 295 295 296 296 296 296 296 295 294 294 293 293 294 293 293 294 294 294 294 294 294 295 295 296 297 297 297 296 296 297 297 297 297 297 297 297 296 295 295 295 295 294
317 317 316 316 316 315 315 315 314 313 313 312 311 311 309 303 299 297 295 295 295 295 295 295 295 295 295 295 295 295 295 295 295 295 295 295 294 294 294 294 294 294 294 294 295 295 296 296 296 295 295 294 294 293 293 293 293 293 293 294 294 294 294 294 294 294 295 295 296 296 296 296 296 296 296 296 296 296 296 296 294 294 294 294 293
317 316 316 316 315 315 315 314 314 313 312 311 311 309 305 300 299 298 296 295 295 295 295 295 295 295 296 295 295 295 294 294 294 294 294 294 294 294 294 293 294 294 294 294 294 294 295 295 295 295 295 294 293 293 293 293 293 293 293 293 293 294 294 294 294 294 294 294 294 294 294 294 295 295 296 296 295 295 295 294 293 293 293 293 293
316 316 316 315 315 315 314 314 313 312 311 310 309 306 302 301 301 300 296 295 295 295 295 296 296 296 296 296 295 295 295 294 294 294 294 294 294 293 293 293 294 295 294 294 294 293 293 294 294 294 294 294 293 293 293 293 293 293 293 293 293 293 293 294 294 294 294 294 294 294 293 294 294 294 295 295 294 294 294 293 293 292 292 293 293
316 316 316 315 315 314 313 313 312 312 311 309 306 303 303 304 303 299 295 294 295 295 295 295 295 295 295 295 295 295 295 294 294 294 294 293 293 294 294 294 294 295 294 294 294 293 293 293 293 293 293 293 293 293 292 292 292 292 293 293 293 293 293 293 293 293 293 293 293 293 293 293 293 293 294 294 294 294 294 293 293 293 293 293 293
315 315 315 315 315 314 313 313 312 311 311 309 305 303 304 303 300 297 296 296 297 297 297 297 295 295 295 295 294 295 294 294 294 294 294 294 294 294 294 294 294 294 294 294 294 294 293 293 292 293 293 293 293 293 292 292 292 292 292 292 292 292 292 292 293 293 293 293 293 293 292 292 293 293 293 293 293 294 293 294 293 293 293 293 293
315 315 315 314 314 313 313 313 312 311 310 307 304 303 303 300 298 299 300 301 301 301 301 300 298 296 296 295 295 296 296 295 294 294 294 294 294 294 294 294 294 294 294 294 295 294 294 293 293 293 293 293 293 292 292 292 292 292 292 292 292 292 292 292 292 292 292 293 292 292 292 292 292 292 293 293 293 293 293 293 293 294 294 294 293
315 315 314 314 313 313 313 312 311 311 309 305 303 303 300 297 299 302 303 302 302 302 302 301 300 299 298 297 296 297 297 296 295 295 295 294 293 293 293 293 293 294 295 295 295 295 295 294 294 293 293 293 293 292 292 292 292 292 292 292 292 292 292 292 292 292 292 292 292 292 292 292 292 292 292 292 292 292 292 292 293 293 294 294 294
315 315 314 314 313 313 312 311 311 310 307 304 303 301 298 298 301 303 303 303 303 302 301 301 301 300 299 298 298 297 296 294 295 295 294 293 293 293 293 293 293 294 295 296 296 296 295 295 294 294 293 293 293 292 292 292 292 292 292 292 292 292 292 292 292 292 292 292 292 292 292 292 292 292 292 292 293 293 293 292 292 293 293 294 294
314 314 314 313 313 312 311 311 310 308 306 303 302 299 299 301 303 303 303 303 302 302 301 301 301 300 299 299 298 298 296 294 294 294 294 293 293 293 293 293 294 295 295 296 296 295 295 295 295 294 294 293 293 293 292 292 292 292 292 292 292 292 292 292 292 292 292 291 291 292 292 292 292 292 292 292 293 293 293 293 293 293 293 293 293
313 313 313 313 312 312 311 310 309 307 304 303 301 299 300 302 303 303 304 303 302 302 301 301 300 300 299 299 299 298 296 294 293 293 293 293 293 293 293 293 294 294 295 295 295 295 295 295 295 294 294 294 293 293 293 293 292 292 292 292 292 292 292 292 292 292 292 292 291 292 292 292 292 291 292 292 292 293 293 293 293 293 293 293 293
312 313 313 313 312 311 311 310 308 305 303 302 301 300 302 303 303 303 303 303 302 302 301 301 300 300 299 299 299 297 295 294 293 293 293 293 293 293 293 293 294 294 295 295 295 295 295 295 295 294 294 294 294 293 293 293 293 292 292 292 292 292 292 292 292 292 292 292 292 292 292 292 292 291 291 291 292 292 292 292 293 293 293 293 293
312 313 313 312 312 311 310 309 306 304 302 301 301 301 302 303 303 303 303 303 302 302 301 301 300 299 299 299 297 295 294 293 293 293 293 293 293 293 293 293 294 294 295 295 295 295 295 295 295 295 294 294 294 294 293 293 293 293 292 292 292 292 292 292 292 292 292 292 292 292 292 292 292 292 291 291 292 292 292 292 292 292 293 293 293
312 312 312 312 312 311 309 307 305 303 302 301 301 302 302 303 303 302 302 302 302 302 301 301 300 299 299 298 296 294 294 293 293 293 293 293 293 293 293 294 294 295 295 296 296 296 295 295 295 295 295 294 294 293 293 293 293 293 293 292 292 292 292 292 292 292 292 292 292 292 292 292 292 292 292 292 291 292 292 292 291 291 291 292 292
311 311 311 311 311 310 308 306 304 303 302 302 302 302 302 302 302 302 302 302 302 301 301 301 300 299 298 296 295 294 294 294 294 293 293 293 293 293 293 294 295 296 296 296 296 296 296 296 295 295 295 295 294 294 294 294 293 293 293 293 292 292 292 292 292 292 292 292 292 292 292 292 292 292 292 292 292 292 292 292 292 291 291 291 291
311 310 310 310 309 308 307 305 303 302 302 302 302 301 301 301 301 301 301 301 300 300 300 300 299 298 297 295 294 294 294 294 294 293 293 293 293 293 293 294 295 296 297 297 297 297 297 297 296 296 295 295 295 295 295 295 294 293 293 292 292 292 292 293 293 292 292 292 292 292 292 292 292 292 292 292 292 292 292 293 292 292 292 292 292
310 310 309 308 308 307 306 304 303 302 301 301 301 301 300 300 300 300 300 299 298 297 297 298 297 296 294 294 293 293 293 293 293 293 293 293 293 293 293 294 295 296 297 297 297 297 297 297 297 296 296 296 295 296 296 295 295 294 294 293 292 292 292 293 293 293 292 292 292 292 292 292 292 292 292 292 292 292 293 293 293 293 293 293 293
310 309 308 307 307 306 305 304 302 302 301 301 300 299 298 297 297 297 297 297 296 294 294 295 295 294 293 293 293 293 293 293 293 293 293 293 293 293 293 293 295 296 297 297 297 298 297 298 297 297 297 296 296 296 296 295 295 295 294 293 293 293 292 292 292 292 292 292 292 292 292 292 292 292 292 292 293 293 293 293 293 293 293 293 293
308 307 306 306 305 304 303 303 302 301 301 300 299 298 297 297 297 296 295 294 294 293 293 293 293 293 293 293 293 293 293 293 293 293 293 293 293 293 293 294 295 297 297 298 298 297 298 298 298 297 297 296 296 296 296 296 296 295 294 293 293 293 293 293 292 292 292 292 292 292 292 291 291 291 291 292 292 292 293 293 293 293 293 293 293
306 306 306 305 304 303 302 301 301 301 300 299 299 299 299 299 299 297 294 293 293 294 294 293 293 293 293 293 293 293 293 293 293 293 293 293 293 294 294 295 297 298 298 298 298 298 298 298 298 297 297 297 297 297 297 297 296 296 295 294 294 293 293 293 292 292 293 293 292 293 292 292 292 292 292 292 292 292 292 292 292 292 292 292 292
305 305 305 305 303 302 301 301 301 301 300 300 300 300 300 300 299 296 294 294 295 296 296 296 295 294 293 293 293 293 293 294 294 295 295 295 295 295 295 295 297 298 299 298 298 298 298 298 298 298 298 297 297 297 297 297 297 297 297 296 295 294 293 293 292 292 292 292 292 292 292 293 293 293 293 293 292 292 292 292 291 291 291 291 291
305 304 303 303 302 302 302 302 301 301 301 301 300 300 301 301 299 297 296 297 297 298 298 298 297 295 294 294 294 295 296 296 297 297 298 298 298 297 296 296 296 298 299 298 298 298 298 298 299 298 298 298 298 298 298 298 298 298 298 297 297 296 295 293 293 292 292 292 292 292 292 292 292 292 292 292 292 292 292 291 291 291 291 291 291
304 302 301 301 302 302 302 302 302 302 301 301 301 301 301 301 299 298 298 298 299 299 299 299 299 298 297 297 297 298 298 298 299 299 299 299 299 298 297 297 297 298 299 299 299 298 298 299 299 299 298 298 298 298 298 298 298 298 298 298 298 297 296 294 293 293 292 292 292 291 291 291 291 291 291 292 292 292 292 292 292 291 291 291 291
303 302 301 301 301 302 302 302 302 302 302 301 301 301 301 300 299 299 298 299 299 300 300 300 299 299 298 298 299 299 299 299 300 300 300 299 299 298 298 297 296 297 297 298 298 299 299 299 299 299 299 299 299 299 299 299 299 299 298 298 298 297 296 295 294 293 293 292 292 292 291 292 292 292 293 293 294 294 294 294 294 294 294 294 293
303 302 301 301 301 302 302 302 302 302 301 301 301 301 300 300 300 299 299 299 300 300 300 300 299 299 298 298 299 299 299 299 299 299 299 299 299 299 299 298 298 297 297 298 298 299 299 299 299 299 299 299 299 299 299 299 299 299 298 298 298 297 297 296 295 294 294 293 293 293 294 294 295 295 296 296 296 296 296 296 296 296 296 296 296
302 301 301 301 301 302 302 302 302 301 301 301 300 300 300 300 300 300 299 299 299 299 300 299 299 299 299 298 298 298 299 299 299 299 299 299 299 299 299 299 299 299 299 299 299 299 299 299 299 299 299 299 299 299 299 299 299 299 299 298 298 298 298 297 297 296 296 295 295 296 296 296 297 297 298 298 298 298 298 298 298 298 298 297 297
Wind_Speed
27 25 24 23 21 21 20 20 21 20 19 19 18 15 12 12 15 16 15 13 12 11 9 8 7 4 5 7 7 7 7 5 4 4 4 5 7 8 8 6 6 7 6 6 7 8 9 10 11 13 13 13 13 13 13 12 10 10 11 13 15 17 18 19 21 22 22 23 23 22 21 20 20 20 18 17 16 14 13 13 12 13 15 17 17
27 25 24 22 21 20 20 21 21 20 20 19 16 13 15 18 19 17 16 14 13 12 10 10 8 4 4 5 6 6 5 4 3 3 4 5 6 7 7 6 7 8 7 8 9 9 10 11 13 15 15 17 19 19 19 17 15 15 17 20 22 23 23 24 25 25 26 26 25 24 22 22 23 23 21 21 20 17 14 14 13 13 14 15 17
27 25 23 22 21 21 21 21 20 19 19 17 15 17 20 21 19 18 17 15 14 12 10 9 7 5 4 5 5 5 4 3 2 2 3 4 5 5 7 7 8 8 9 10 11 10 11 13 15 17 18 20 23 25 25 24 22 22 23 25 26 28 28 27 28 29 30 31 31 30 29 28 27 26 24 22 21 20 18 17 15 14 14 14 15
27 25 23 22 22 22 22 21 20 19 18 16 19 22 23 21 20 18 17 16 15 13 11 9 7 6 5 5 5 4 3 1 1 2 3 3 4 5 7 8 9 9 10 11 12 12 13 15 17 18 19 22 26 28 29 28 27 27 27 27 29 30 30 30 31 32 33 34 34 34 34 32 31 30 26 23 22 22 21 20 18 16 15 13 14
26 25 24 23 23 23 22 20 20 19 17 19 23 25 23 22 20 18 17 17 16 14 12 9 8 7 7 6 4 3 2 1 2 3 3 3 3 5 6 8 9 9 10 11 13 14 15 16 18 18 19 23 27 29 29 29 28 27 27 27 29 30 30 30 31 33 35 36 36 35 34 33 33 33 30 27 25 25 24 23 21 20 17 15 14
26 25 24 23 23 22 21 21 20 17 18 24 26 25 24 23 21 19 18 17 16 14 12 10 9 8 7 6 4 3 3 2 3 5 5 4 3 3 5 7 8 8 9 11 13 15 17 17 18 18 19 23 26 28 28 28 27 27 27 27 27 28 30 30 31 33 35 36 36 36 36 36 35 35 34 31 30 29 27 25 23 22 21 18 17
27 25 24 23 23 22 21 21 20 16 21 27 27 25 25 22 21 20 19 17 16 14 12 11 10 8 8 7 6 6 6 5 5 6 5 4 2 3 5 7 9 9 9 11 14 16 17 17 17 18 18 20 23 26 27 27 27 26 27 26 26 27 30 31 32 34 37 38 40 40 40 40 39 37 35 33 32 32 31 29 26 25 24 22 20
27 25 24 23 23 22 22 21 18 18 25 29 27 25 24 22 21 20 18 17 15 14 13 12 11 10 9 8 8 8 8 6 6 6 5 3 1 4 6 8 10 10 10 11 14 15 16 16 16 17 17 18 20 22 25 26 26 26 26 26 26 27 29 31 34 36 39 42 43 44 44 45 44 41 39 39 38 37 34 31 29 27 26 24 24
26 24 24 23 23 22 22 20 18 22 27 29 28 25 24 22 22 20 18 17 16 14 13 12 11 11 10 9 10 9 8 7 5 4 3 1 2 4 7 9 10 10 10 11 13 15 14 14 15 16 16 17 17 19 22 24 25 25 25 25 25 25 27 30 33 36 39 43 45 46 47 49 49 47 45 43 41 37 34 31 30 29 27 25 26
25 24 24 23 22 22 21 19 20 24 26 27 27 25 23 22 21 19 18 17 16 14 13 13 12 11 10 10 10 9 8 6 6 5 4 3 4 5 8 10 11 11 11 12 14 14 13 13 14 15 15 15 16 17 19 21 23 24 23 23 24 24 26 28 31 34 37 41 44 45 48 49 49 48 46 43 40 38 37 38 37 36 33 31 31
25 25 24 22 21 21 20 19 23 26 25 26 26 24 23 22 20 19 17 16 15 15 14 14 13 12 11 11 10 9 8 8 7 6 6 6 6 7 9 10 11 12 11 12 13 13 12 11 12 13 14 14 14 15 16 18 20 22 22 21 22 23 24 27 29 31 34 38 41 43 46 47 46 45 44 42 41 40 41 42 42 42 42 40 39
25 24 23 21 22 22 20 21 27 28 26 26 25 24 22 21 19 18 16 15 16 15 15 14 13 12 11 10 10 9 9 9 8 7 7 7 7 8 9 11 11 12 12 12 12 12 11 10 10 10 11 12 13 13 14 15 17 19 20 19 20 21 23 25 27 28 30 34 37 40 42 44 44 44 43 42 41 40 41 42 44 45 45 44 43
24 23 22 22 24 23 20 25 31 28 26 25 24 23 22 20 19 17 16 16 16 16 15 15 14 13 11 10 10 10 10 9 9 8 9 9 9 9 10 11 11 12 12 12 11 10 9 8 8 8 9 10 12 13 13 13 15 17 18 18 19 20 22 23 25 25 27 30 33 37 38 40 42 43 42 41 40 40 40 41 43 44 45 45 44
24 23 23 24 25 22 22 30 32 27 25 24 23 23 22 20 18 16 16 17 18 17 16 15 14 13 12 11 11 11 10 11 10 10 10 10 9 9 10 11 11 12 12 11 11 10 9 8 7 8 9 10 11 12 12 12 13 15 17 17 18 19 20 21 22 23 24 26 30 32 34 36 39 41 41 41 41 41 41 41 41 43 45 45 44
23 23 23 25 24 21 24 31 31 27 26 25 24 23 22 21 19 16 16 18 18 18 17 16 15 14 12 11 11 11 11 12 11 11 10 10 10 10 10 11 11 12 12 11 11 11 10 9 9 9 9 10 11 12 11 11 12 14 15 16 16 18 19 20 21 22 23 24 26 27 29 32 34 37 39 40 41 42 41 39 39 40 41 43 44
23 23 23 23 22 20 26 33 31 29 28 27 26 25 24 22 20 17 17 18 19 19 18 16 15 14 13 12 11 12 13 13 12 11 10 10 10 10 10 11 11 11 11 11 10 11 11 10 10 10 10 11 11 11 11 10 11 13 14 14 15 16 18 19 19 21 23 23 23 24 25 27 30 33 36 38 39 40 39 39 40 40 40 42 46
23 23 22 21 20 22 31 35 32 30 30 28 28 27 25 23 21 19 18 21 21 20 18 17 15 14 14 13 12 13 15 15 13 12 11 10 9 9 10 10 11 11 11 11 10 10 11 10 10 10 10 11 11 10 10 10 10 11 11 12 14 15 17 17 18 20 22 22 21 22 23 23 26 29 33 35 37 38 40 42 44 44 44 45 46
20 20 20 20 20 27 34 34 32 32 31 29 29 27 25 24 21 19 20 22 22 20 18 17 17 15 14 14 13 14 16 16 14 12 11 10 9 9 10 10 11 11 11 11 10 9 10 10 9 9 9 10 9 9 9 9 9 9 9 10 13 15 15 15 16 19 21 20 21 21 22 22 24 27 30 33 35 37 40 43 44 44 47 48 45
18 18 20 20 24 32 34 32 31 32 30 29 28 27 25 24 21 19 20 21 21 20 18 17 18 17 16 15 15 15 16 16 14 11 11 10 9 9 9 9 10 11 11 11 10 9 9 9 8 8 8 8 8 8 9 8 8 8 7 8 12 15 13 13 15 18 20 20 20 20 21 23 24 25 28 31 33 36 38 39 40 42 45 47 46
18 19 20 22 28 34 34 31 32 32 30 29 28 26 25 23 21 20 21 21 20 18 17 17 18 18 18 16 16 15 15 14 12 9 8 8 9 9 9 8 10 11 11 11 11 10 10 9 9 8 7 7 7 7 7 7 7 7 5 6 10 12 10 10 12 15 18 19 19 19 20 21 23 25 27 30 32 33 34 36 37 39 41 43 45
19 21 23 26 32 35 33 31 32 31 29 28 27 26 24 22 21 22 22 21 19 18 18 18 18 19 19 17 16 15 14 13 12 10 7 6 7 9 9 8 9 10 11 11 11 11 11 10 10 9 8 7 7 7 7 6 6 5 4 6 7 7 6 7 9 11 15 17 18 19 19 19 22 24 26 28 30 31 32 33 34 35 37 39 42
22 25 28 31 35 35 32 31 31 31 29 28 27 26 24 22 22 22 21 20 19 19 19 19 19 20 20 19 17 16 14 13 12 11 8 5 6 8 9 9 9 9 10 11 11 11 11 10 10 8 7 7 7 7 7 5 4 4 4 5 4 2 3 5 6 8 11 14 17 19 19 19 20 22 24 26 27 28 28 29 30 32 33 35 38
25 29 32 34 35 34 32 32 32 31 29 28 26 25 23 22 22 22 21 20 20 20 21 21 21 21 21 20 19 18 17 15 13 12 10 6 5 8 10 11 11 10 11 12 13 12 11 10 9 8 7 6 7 7 7 6 5 4 4 3 2 1 1 2 4 7 10 12 15 18 19 19 19 20 22 23 24 24 25 25 26 28 29 30 33
30 33 34 35 34 33 33 34 33 31 29 28 26 25 24 23 22 21 20 20 21 22 22 22 22 22 22 22 21 20 19 17 15 13 12 9 8 9 12 13 13 12 12 12 12 12 11 9 9 8 7 6 6 7 7 7 7 6 4 3 2 1 1 0 1 4 8 11 14 16 17 17 18 18 19 20 21 21 22 22 23 25 25 27 29
33 35 35 34 34 34 36 35 33 30 28 28 26 25 25 24 23 22 21 21 22 23 23 23 23 23 23 23 22 21 20 19 17 16 15 12 11 12 13 13 13 12 11 11 12 11 9 9 8 7 7 6 7 7 7 8 8 8 7 6 4 3 4 4 4 4 6 10 12 14 15 15 15 15 15 15 16 18 20 21 22 22 23 24 26
34 34 35 35 35 37 37 35 32 29 28 27 26 25 25 25 24 22 22 22 23 23 24 24 24 23 23 23 23 22 21 20 19 19 17 15 15 14 14 12 12 11 11 11 11 10 9 8 7 6 5 5 6 7 8 8 8 8 8 7 7 6 6 7 7 7 8 9 9 11 12 12 12 12 12 12 13 15 17 19 20 20 21 22 24
35 35 36 36 38 38 37 34 32 30 29 28 26 25 25 25 24 22 23 24 24 24 25 25 25 24 24 23 23 22 21 21 21 20 19 18 16 15 13 12 12 11 11 10 10 9 8 7 6 6 5 4 6 7 7 7 7 7 8 8 7 7 7 7 8 8 8 8 8 8 9 9 9 10 11 12 13 15 15 16 18 19 20 21 23
38 37 38 38 39 38 36 33 32 30 29 28 26 25 25 25 22 21 22 23 24 25 26 25 25 25 24 23 23 22 22 21 21 20 19 17 15 15 14 13 12 11 10 10 9 8 7 6 5 5 5 4 4 5 5 5 6 7 7 7 7 7 7 7 7 8 8 8 8 8 8 9 9 9 9 10 12 14 14 15 17 19 19 20 23
38 38 40 40 39 38 35 33 31 31 30 28 26 26 25 23 19 19 20 21 21 22 24 24 24 23 21 20 20 20 21 21 20 18 16 15 14 14 14 13 12 11 10 9 8 7 7 6 6 6 5 4 3 3 4 4 4 5 6 7 7 6 6 5 6 7 7 7 7 8 8 9 9 9 8 9 11 12 13 15 16 17 18 19 21
39 40 41 41 39 37 35 33 32 31 30 29 28 28 26 22 19 19 20 20 19 19 19 20 20 19 18 16 15 14 15 17 17 16 15 15 15 14 13 13 12 11 10 9 8 7 7 7 6 6 5 4 3 2 3 3 3 3 4 5 5 5 5 5 6 6 6 6 7 8 8 8 8 8 8 9 10 11 12 13 15 16 17 18 19
41 41 41 40 39 36 34 32 31 30 29 29 30 30 27 24 22 21 21 20 19 17 15 15 16 16 15 15 16 14 14 15 16 15 15 15 15 14 14 13 13 12 11 10 8 7 6 6 6 5 4 4 3 2 2 3 3 2 2 3 3 4 4 4 5 5 5 5 6 6 7 8 8 8 8 8 8 9 10 11 12 14 15 17 17
41 40 39 38 37 35 33 32 31 30 30 31 32 30 27 26 26 25 22 20 18 16 14 12 13 13 13 13 15 15 15 16 16 15 15 15 15 15 14 14 13 12 12 10 8 7 6 5 5 5 4 3 3 2 2 2 2 1 1 2 2 2 3 3 3 4 4 4 5 6 6 7 7 7 7 7 7 7 8 9 10 11 12 13 14
40 39 37 37 36 34 33 33 32 31 31 33 33 30 28 29 29 27 25 22 20 18 16 14 12 11 11 12 12 11 12 15 16 16 16 16 17 16 15 14 14 13 12 11 9 7 6 5 4 4 3 3 3 3 2 2 1 1 1 0 1 2 2 2 3 3 4 5 5 6 6 6 6 6 6 6 7 7 8 8 8 8 9 10 11
40 38 36 36 36 34 33 33 31 30 32 34 32 30 30 30 29 28 27 26 24 23 22 19 16 13 11 12 12 10 10 12 14 16 17 17 17 16 15 14 14 13 12 11 10 8 6 5 4 3 3 3 3 2 2 2 2 2 2 1 1 1 3 3 3 3 4 5 5 5 6 6 6 5 4 5 6 7 7 8 8 7 7 8 9
40 37 35 35 34 34 33 31 30 31 33 33 32 31 32 30 29 28 27 27 26 26 25 23 21 17 14 13 12 11 10 11 13 15 17 17 17 16 16 15 14 14 14 13 11 9 7 6 5 4 4 4 3 3 3 3 2 3 3 2 2 2 3 4 4 3 3 4 5 5 6 6 6 6 5 5 5 6 7 7 8 8 7 7 7
39 37 35 33 33 33 32 30 30 32 33 33 32 32 32 30 29 28 27 27 27 26 26 25 23 20 18 16 14 13 13 13 14 16 16 17 17 16 16 16 15 15 14 12 10 9 8 7 6 5 5 4 4 4 4 3 3 4 4 4 4 4 4 4 5 4 3 4 5 6 6 6 6 6 6 6 6 6 7 7 7 8 9 8 8
39 37 34 33 33 32 30 29 30 32 33 33 33 32 31 30 28 28 27 27 27 26 26 26 25 23 22 20 17 16 15 15 16 17 17 18 17 17 17 16 15 15 14 12 10 9 8 7 7 7 6 5 5 5 5 5 4 4 5 5 5 5 5 6 6 6 5 5 6 6 7 7 6 6 6 7 7 7 7 7 7 8 9 9 9
38 36 34 33 33 31 30 29 31 32 33 33 33 32 31 30 28 27 27 27 27 27 27 26 25 24 22 20 18 17 17 18 18 18 19 18 18 18 18 17 16 15 14 12 11 9 8 8 9 8 7 7 6 6 7 7 6 6 6 6 6 6 6 7 7 7 6 6 7 7 8 8 7 7 7 8 8 8 8 7 8 8 9 9 10
35 34 34 34 33 31 30 30 33 34 34 33 33 32 31 29 28 27 27 27 27 27 27 26 25 24 21 19 19 19 20 20 20 19 19 19 19 19 19 18 17 16 14 13 12 9 8 9 9 9 8 8 8 8 8 8 8 7 7 7 8 8 7 8 8 8 8 8 8 8 9 9 9 9 9 9 9 10 9 8 8 9 9 10 10
34 34 34 34 32 31 30 31 34 35 34 34 33 32 31 30 29 28 28 27 28 28 28 28 26 24 21 20 20 20 20 20 19 19 19 19 19 20 20 19 18 16 15 14 13 10 9 10 11 10 10 10 9 9 9 9 9 9 9 9 9 9 9 9 9 9 8 8 9 9 10 10 10 10 10 10 10 11 11 10 8 9 10 11 11
33 33 33 32 31 31 31 33 34 35 34 33 33 32 31 30 29 28 28 27 27 27 28 27 25 23 21 20 19 19 19 18 17 18 18 19 19 20 20 19 18 17 16 15 14 12 11 12 13 12 12 11 10 9 8 9 9 10 11 11 11 11 11 11 11 10 9 9 9 10 10 11 11 11 11 11 11 12 12 11 9 9 10 11 11
33 32 32 32 32 32 33 34 35 34 34 33 32 31 30 29 29 29 28 27 26 26 26 25 23 22 21 20 19 18 17 16 16 17 18 18 19 20 20 20 19 17 17 16 15 13 13 14 14 14 13 13 11 10 10 10 11 12 14 14 14 13 13 12 11 11 10 10 11 11 12 12 12 11 11 11 11 12 12 12 11 10 10 11 11
32 32 32 32 32 33 33 34 33 32 31 30 29 28 27 27 27 27 26 26 25 24 23 23 22 21 21 20 19 18 18 17 17 17 18 18 19 20 20 19 18 17 17 17 16 15 14 15 15 15 15 14 13 12 12 13 14 15 16 16 16 15 14 14 13 12 12 12 11 12 12 13 13 13 12 12 12 12 12 12 12 11 11 12 12
28 30 30 31 32 32 32 32 31 29 27 26 24 22 21 20 20 21 23 23 23 22 21 21 21 21 21 21 20 20 19 18 18 18 18 19 19 20 19 19 17 16 15 16 16 15 15 16 16 16 15 14 13 12 12 13 14 16 16 16 16 16 16 15 15 14 14 14 13 13 13 13 14 14 14 13 13 14 13 13 13 13 13 13 13
24 27 28 29 30 30 29 28 27 26 23 21 20 19 17 16 16 18 20 21 20 19 19 19 20 21 21 21 21 20 19 18 18 17 17 18 18 18 18 18 18 17 15 14 14 15 16 16 16 16 15 14 13 12 12 12 13 14 14 15 16 16 16 16 16 16 16 16 15 14 13 13 14 14 14 14 15 15 15 15 15 15 15 15 16
23 25 27 30 30 29 27 26 25 23 21 20 20 18 16 15 16 16 18 18 17 16 15 15 16 19 21 21 21 20 19 18 18 16 15 15 16 17 18 19 20 20 18 16 15 15 15 16 16 16 16 15 14 14 13 12 12 13 14 14 15 16 16 17 17 17 17 17 16 16 15 14 14 14 14 14 15 16 16 16 16 17 17 17 18
23 23 27 30 30 28 27 26 24 23 22 22 20 18 17 16 16 16 16 15 14 13 13 12 13 16 19 20 19 18 17 17 16 15 14 14 15 16 18 20 21 21 19 18 17 16 17 17 17 17 16 16 15 14 13 13 13 13 14 15 15 16 16 17 18 19 19 19 18 18 18 17 16 16 15 16 16 17 17 17 17 18 18 19 19
22 22 26 29 28 27 27 25 23 23 24 23 21 19 17 16 16 16 16 16 15 15 15 14 14 15 17 17 17 16 16 15 15 14 13 13 14 14 16 19 21 22 22 21 20 20 19 18 17 16 16 15 15 14 14 14 14 15 16 16 16 16 16 16 18 19 20 20 20 20 20 19 19 18 18 18 18 19 19 19 19 19 19 20 20
21 22 26 27 26 25 24 24 24 25 26 24 20 18 17 17 17 17 18 18 17 17 17 16 15 15 17 17 16 16 16 16 16 15 14 14 13 14 15 17 20 23 24 23 22 20 18 17 16 16 16 16 16 16 16 16 16 16 16 16 15 15 15 16 18 19 20 20 20 19 19 19 18 18 18 18 18 19 19 19 19 19 19 20 21
22 23 25 25 24 23 23 23 24 25 23 21 19 17 17 18 19 20 20 19 18 16 16 16 15 15 17 18 19 19 18 18 17 16 16 15 14 13 13 14 15 17 19 19 18 17 17 17 18 18 18 19 18 18 18 18 18 18 17 15 14 13 14 15 17 18 19 19 18 17 17 17 17 17 17 17 18 19 20 20 20 20 21 22 22
21 21 22 22 22 22 22 22 22 21 19 18 18 18 17 18 20 21 22 21 20 18 17 17 16 16 16 17 19 20 21 20 19 17 17 16 15 14 14 14 14 14 15 16 16 16 17 18 19 19 20 21 21 21 21 20 20 19 18 16 15 15 15 15 16 16 17 18 18 18 18 19 19 19 20 20 20 21 22 22 23 24 24 25 25
Wind_Direction
187 190 194 198 204 208 212 215 218 220 221 222 221 217 208 192 183 177 165 153 149 154 154 154 162 157 131 131 130 125 118 106 83 51 35 26 28 37 46 55 71 75 68 59 55 51 49 50 50 49 46 44 46 48 46 41 34 33 34 38 43 42 40 39 36 32 27 24 21 18 17 15 14 13 12 12 9 4 360 357 357 0 4 8 9
189 193 197 200 207 212 215 218 220 222 223 222 217 200 183 176 175 170 158 155 161 165 167 175 182 176 144 133 123 118 114 103 79 32 7 5 14 34 55 73 84 83 76 70 68 66 64 62 60 58 54 53 54 54 54 52 51 55 56 55 55 51 46 42 39 36 33 29 28 27 25 23 22 19 17 19 18 12 5 1 0 3 6 7 6
193 197 201 205 211 214 217 220 222 222 220 214 194 175 171 172 172 167 160 161 169 173 182 190 191 195 183 149 127 117 107 92 55 341 329 337 357 31 62 80 86 83 78 76 78 77 74 70 66 63 60 58 58 58 59 60 62 65 65 62 57 53 49 45 43 41 40 36 34 32 31 30 29 25 22 22 24 20 13 9 7 7 10 9 5
197 201 205 210 213 215 218 220 220 218 208 190 173 167 169 173 172 168 165 169 176 183 191 197 204 216 209 173 144 133 119 97 317 289 289 307 342 23 56 73 78 77 78 81 83 80 76 75 71 67 63 61 60 60 61 63 66 67 65 61 57 53 50 49 48 46 44 41 38 35 34 33 32 29 26 24 26 25 20 16 12 10 14 15 12
201 204 208 213 214 216 219 220 219 214 192 170 166 167 172 176 172 168 171 177 183 189 194 200 209 213 205 189 175 169 163 178 258 248 247 275 323 8 45 67 73 74 79 85 88 84 79 78 77 73 67 64 62 60 61 64 65 64 62 59 56 53 51 51 50 48 45 42 40 37 36 35 34 31 28 25 25 26 24 21 17 13 16 24 24
204 207 211 214 215 218 220 219 219 208 175 163 166 170 176 178 173 172 179 185 188 194 200 201 197 196 201 203 208 216 219 229 243 237 234 249 292 4 46 67 74 77 83 90 93 89 82 80 81 78 72 67 64 62 61 63 63 62 59 56 54 52 51 50 50 49 47 44 41 39 37 35 34 33 30 26 23 23 22 21 22 18 15 22 28
206 210 214 215 217 220 220 218 217 197 167 165 169 174 178 178 176 179 184 190 193 199 206 202 193 195 207 214 219 227 232 238 243 238 235 250 296 37 60 70 77 82 89 95 96 92 86 82 81 81 77 71 68 64 62 62 62 61 58 54 52 51 50 49 48 47 47 46 44 41 39 36 34 32 32 30 29 26 20 16 20 22 19 19 23
208 211 215 215 218 220 218 216 210 180 163 166 172 177 180 180 181 184 186 192 198 204 209 207 201 201 207 215 220 223 228 236 239 235 239 261 351 56 70 75 81 88 98 102 99 93 89 87 83 82 80 76 71 67 64 63 62 61 58 54 50 49 48 47 46 46 48 47 45 42 40 38 35 32 30 29 30 29 24 19 18 21 22 21 20
209 213 214 215 218 216 213 211 195 169 164 168 174 179 183 183 186 189 190 195 202 206 207 207 204 203 203 208 213 217 223 225 212 208 221 209 88 86 87 86 87 95 103 105 101 95 93 92 88 85 83 80 76 71 66 63 62 60 57 54 50 47 47 46 46 46 48 47 44 42 41 39 36 33 32 31 30 28 27 28 27 25 25 27 26
212 215 214 215 215 209 206 198 176 165 165 171 176 182 186 188 191 194 196 201 206 205 201 200 201 202 202 202 207 211 210 197 175 166 163 142 125 111 103 100 98 100 104 105 104 100 98 98 95 91 88 83 80 78 71 65 62 59 56 54 50 46 44 44 45 47 48 47 43 41 40 39 37 37 37 37 36 34 33 35 35 33 31 33 31
214 215 214 214 208 201 199 185 166 162 166 172 179 185 189 191 194 196 198 201 202 198 195 196 196 197 196 196 199 199 187 172 160 155 151 144 136 125 116 111 106 103 102 104 109 110 109 109 105 97 90 84 81 81 78 71 65 62 58 54 50 46 42 42 44 46 48 47 44 41 40 40 38 38 40 41 41 42 42 41 40 38 36 34 31
213 213 211 205 196 196 197 176 160 162 170 176 182 187 190 194 195 195 196 195 192 191 192 194 191 189 190 191 190 186 177 165 156 154 148 139 137 133 124 117 111 107 104 104 111 119 121 119 112 102 92 86 83 80 79 76 70 66 63 57 52 48 43 40 41 45 47 47 45 43 41 40 39 39 39 41 43 45 47 47 45 43 40 37 33
210 208 203 193 192 199 192 167 160 167 177 182 187 191 194 198 198 199 199 194 191 191 190 188 186 184 185 186 185 180 171 158 150 149 144 136 137 136 128 122 118 113 109 107 110 119 125 127 121 110 100 93 90 84 80 78 74 70 68 62 55 51 46 40 39 43 46 46 45 44 43 42 42 41 39 40 42 44 46 47 48 47 44 41 38
206 203 195 189 194 199 181 163 164 173 181 186 192 195 199 202 203 204 201 193 191 189 184 182 181 182 184 184 183 175 163 151 145 145 142 137 140 139 132 129 126 120 117 115 113 113 115 119 120 118 114 104 97 92 86 80 78 75 72 65 56 51 47 41 36 39 42 42 43 45 46 45 45 44 43 41 42 43 44 46 47 48 47 45 41
203 200 192 191 200 200 176 167 170 176 181 188 194 198 203 207 207 206 198 191 189 185 181 181 181 180 182 183 179 170 158 148 143 143 142 141 144 143 138 135 131 126 124 122 118 111 104 101 105 113 120 112 104 101 95 87 83 80 75 67 56 49 48 42 35 36 40 40 41 44 46 47 48 47 45 44 43 44 45 46 47 48 48 47 44
207 202 195 198 207 198 177 172 175 179 184 191 196 200 206 210 210 208 198 188 185 181 179 181 182 179 179 181 178 166 156 149 144 144 146 147 148 146 143 140 135 130 127 123 116 108 100 95 96 104 115 115 112 111 104 93 88 85 80 71 59 52 51 47 39 38 42 42 42 43 45 47 49 47 46 45 44 43 44 45 46 47 47 46 44
210 201 197 204 204 185 175 176 179 183 189 194 199 203 207 210 212 211 200 187 182 181 181 180 180 180 177 176 176 167 157 149 146 146 148 148 151 150 146 144 139 132 127 120 112 106 102 98 97 101 110 116 118 119 113 100 92 92 88 76 66 61 58 53 47 46 47 46 44 43 44 46 49 48 45 43 42 40 40 41 41 42 43 43 42
209 199 199 204 193 177 175 179 183 188 192 197 201 204 207 211 214 211 198 188 182 182 183 179 177 178 176 173 174 170 159 150 147 150 150 150 154 154 151 148 141 133 126 119 114 109 106 104 103 103 107 112 118 123 123 112 98 98 96 79 73 75 70 61 54 51 51 50 47 44 42 43 47 48 45 43 40 38 38 38 37 38 40 41 40
210 204 202 198 185 178 179 184 189 192 195 199 203 206 208 212 214 206 193 188 185 184 184 183 178 174 173 173 173 171 163 154 152 157 157 154 155 156 156 154 144 133 127 122 117 112 109 107 105 104 104 107 113 120 127 124 107 98 94 79 77 82 80 71 60 54 53 53 49 45 44 43 44 47 45 43 40 38 37 36 35 36 39 39 38
208 203 197 190 182 181 184 189 194 196 198 201 206 210 211 212 210 201 190 186 187 185 183 185 182 175 173 175 175 173 169 161 160 167 168 160 157 157 158 158 147 136 129 124 118 114 110 106 101 98 98 102 107 113 123 129 120 110 99 80 81 83 80 74 67 61 60 57 51 48 47 44 44 46 45 42 39 37 36 35 34 34 37 38 38
207 196 188 186 183 183 188 193 197 199 203 206 208 210 211 212 208 199 188 184 186 185 182 183 182 177 174 175 176 174 171 167 166 172 181 171 156 157 160 156 148 139 132 126 122 118 113 107 99 93 88 90 95 101 110 120 129 124 100 83 88 85 69 65 66 65 66 64 58 54 51 47 44 44 43 41 38 36 34 34 33 33 34 36 37
203 187 183 185 185 186 192 196 199 203 206 208 208 207 209 211 208 198 188 184 184 184 180 179 179 177 174 175 178 176 173 173 174 181 193 182 148 154 163 156 148 145 138 131 127 123 117 109 101 92 82 78 82 88 93 104 125 127 107 98 105 87 43 51 56 57 63 65 63 61 58 54 49 46 44 42 39 36 34 34 33 32 33 34 35
193 182 181 184 186 190 195 198 202 206 207 207 208 207 208 209 204 196 190 187 185 183 180 178 179 179 175 175 178 178 178 179 181 188 198 195 163 162 166 155 147 147 144 136 131 126 120 113 105 94 81 73 74 78 83 91 109 129 145 169 196 247 318 29 42 46 55 60 62 64 64 61 56 51 48 44 40 36 35 36 36 34 34 35 36
184 180 183 187 192 196 199 201 203 205 206 207 209 209 209 208 202 195 191 189 188 185 181 178 179 180 178 176 177 180 182 183 186 193 202 206 191 175 167 158 153 153 149 140 133 129 125 120 111 98 86 75 71 72 76 80 90 105 121 144 181 224 280 42 73 53 50 53 56 60 62 62 58 52 47 43 39 36 35 35 36 36 37 37 38
181 184 191 196 199 201 201 201 203 205 207 209 211 212 212 208 200 194 191 190 190 187 182 180 181 182 179 177 177 181 186 188 191 196 201 203 193 178 170 165 161 158 153 145 139 134 131 127 120 107 93 81 76 72 71 73 78 88 94 93 92 82 68 76 90 77 58 56 55 54 56 58 57 52 48 45 41 37 34 32 30 33 36 38 38
187 194 199 200 200 200 199 200 202 205 209 211 214 217 216 208 199 193 190 190 190 189 184 180 181 182 180 178 178 181 185 190 193 195 195 192 187 180 174 170 165 161 158 154 148 144 138 133 129 123 109 92 83 77 71 70 73 81 87 87 84 75 67 68 73 74 70 65 57 51 50 53 56 54 50 46 43 39 34 29 28 31 35 36 39
196 201 201 199 198 199 200 201 201 203 207 210 213 217 215 207 199 194 192 190 189 189 187 183 182 183 181 179 180 181 183 186 189 189 189 187 184 178 173 170 168 165 162 157 151 150 150 148 144 142 133 109 89 79 73 72 74 77 80 83 82 76 69 65 66 71 74 70 62 56 51 50 55 57 51 45 42 39 34 30 32 35 37 38 41
199 201 200 199 199 200 202 201 200 202 206 209 211 212 208 202 200 198 197 194 192 191 189 187 186 187 184 182 183 183 183 186 188 188 188 186 181 176 173 172 171 169 165 158 148 146 155 159 156 154 152 131 98 86 83 79 76 75 74 74 76 75 72 67 65 68 72 72 68 65 60 54 54 55 52 46 43 40 38 38 41 43 41 40 43
201 201 200 200 201 201 201 201 202 204 206 206 207 205 202 201 204 204 200 198 198 198 195 192 190 190 189 188 187 186 185 186 187 188 186 182 179 179 178 178 177 174 169 160 148 142 150 159 162 164 164 154 119 101 99 89 77 74 73 71 70 72 73 72 67 65 68 70 68 65 64 61 59 56 52 48 45 43 44 45 47 48 45 42 42
202 201 200 201 202 201 200 201 205 208 208 206 202 198 197 201 206 204 198 194 196 199 200 198 195 191 188 187 187 189 191 189 188 186 183 182 183 184 183 182 181 177 172 164 155 151 153 158 163 165 165 161 146 122 112 102 87 76 74 73 69 66 64 64 64 61 59 58 60 62 62 60 61 59 55 52 49 46 45 45 46 47 48 44 41
199 199 201 202 202 201 202 204 207 210 210 208 202 197 197 198 197 194 191 188 188 188 191 198 199 193 188 186 183 183 189 193 192 189 187 189 190 187 184 182 179 175 172 168 164 162 160 161 163 162 159 156 149 143 128 117 109 98 81 73 66 59 51 49 54 55 49 44 46 51 53 54 57 59 57 54 50 44 41 42 41 43 47 46 44
199 199 202 203 203 203 206 210 212 212 210 206 202 201 200 194 187 184 185 186 186 185 187 196 199 194 190 191 191 191 193 196 198 197 195 194 192 187 183 181 176 173 172 172 171 168 163 163 166 165 163 159 154 157 154 131 131 139 98 61 46 44 39 33 36 30 20 20 25 30 38 43 47 51 53 52 48 42 37 35 33 34 39 43 46
204 204 205 204 203 206 212 215 216 215 212 205 202 202 200 193 186 184 186 188 190 191 193 199 205 200 191 188 192 200 201 201 205 205 199 195 193 187 181 179 178 178 179 181 183 182 175 174 176 172 169 170 170 176 181 167 168 188 183 37 11 16 6 1 10 3 347 347 358 5 13 24 32 38 40 38 38 38 37 35 31 28 29 31 36
210 211 211 209 208 211 215 216 217 217 212 206 203 201 198 195 192 191 189 189 190 192 193 197 203 207 202 192 191 201 206 205 207 204 198 194 193 188 183 183 185 186 187 189 195 197 194 198 205 201 191 188 190 201 210 210 217 230 242 261 297 342 345 342 350 352 339 336 341 346 353 1 8 13 16 19 20 22 30 35 33 26 21 20 20
211 213 213 213 215 217 218 219 220 216 209 205 204 201 198 199 200 199 197 195 192 191 193 195 198 202 206 205 206 211 211 207 204 200 196 195 194 192 190 191 190 191 193 196 201 205 208 215 226 230 222 212 211 221 233 240 248 253 260 273 289 309 324 326 327 332 339 337 330 332 344 353 356 354 351 353 359 3 12 22 24 18 12 8 5
210 211 212 217 221 222 222 223 221 213 207 205 204 202 202 204 205 205 205 203 199 196 195 196 197 199 201 207 215 219 214 207 203 201 199 198 198 198 198 197 195 197 199 201 204 208 213 224 237 244 241 235 236 243 249 255 259 261 266 274 279 288 295 298 302 308 319 325 321 323 333 345 352 349 341 338 345 349 350 354 1 4 3 1 360
211 212 215 221 224 224 225 225 218 211 208 207 205 204 206 208 209 209 210 208 205 204 202 201 201 201 200 205 212 215 210 205 203 203 203 202 202 204 204 201 200 201 203 204 209 214 221 232 244 252 253 250 255 259 261 265 266 263 264 268 272 279 282 282 287 297 303 308 313 318 323 330 339 342 336 332 335 338 338 336 337 341 347 350 352
214 216 220 224 225 225 226 222 214 210 209 209 207 208 210 210 211 213 213 212 212 212 211 211 211 210 209 211 213 211 206 204 204 205 206 206 206 206 205 203 202 204 206 208 213 220 230 238 245 254 259 260 263 267 268 271 272 269 269 270 272 276 280 282 286 294 299 302 306 310 314 318 323 327 330 330 330 330 332 333 330 327 329 334 338
215 217 221 224 227 228 227 219 212 210 210 209 209 211 212 212 214 215 216 217 219 219 218 219 219 218 219 221 220 213 207 205 206 207 208 209 209 208 207 206 206 208 211 215 219 226 238 246 250 255 261 264 267 271 274 278 279 279 278 278 277 277 277 279 284 290 295 299 300 303 307 311 314 318 322 323 322 322 326 333 334 328 324 326 331
215 217 220 224 227 228 225 218 213 211 211 211 212 214 214 215 218 219 220 222 222 223 224 225 224 224 225 225 223 219 215 212 210 210 212 213 212 211 210 210 211 213 217 222 226 232 245 254 256 258 262 266 267 270 277 283 286 286 285 282 281 280 277 277 279 281 285 290 294 296 299 303 306 311 315 317 315 313 318 326 331 327 325 327 331
215 218 221 224 226 225 221 216 215 214 214 214 216 217 218 220 223 225 226 226 226 227 228 227 227 228 227 225 223 222 221 219 217 216 217 218 217 216 217 216 217 220 224 228 231 236 247 257 257 257 260 264 263 266 276 284 288 289 288 284 282 281 281 280 278 277 278 281 285 287 291 295 300 304 309 312 311 309 313 320 325 324 323 326 330
217 219 222 224 225 223 219 216 216 217 217 218 219 222 225 228 229 229 228 228 229 230 228 225 224 224 223 221 219 218 218 219 219 220 222 222 221 221 222 222 222 225 230 235 238 241 249 256 258 259 262 264 265 268 276 284 289 292 290 287 284 283 284 283 281 280 280 282 284 284 285 288 291 296 300 303 304 305 308 312 315 316 316 318 323
219 219 221 223 223 221 220 218 218 218 219 221 222 224 226 228 229 229 228 227 228 226 223 220 218 216 215 215 215 213 213 213 215 219 222 222 223 224 224 225 226 230 236 241 244 245 248 254 259 261 263 264 267 273 279 285 290 291 289 286 284 282 281 281 282 282 283 285 285 284 283 283 285 289 292 295 297 299 301 303 306 306 306 309 314
217 215 216 219 220 219 219 220 221 222 222 222 220 220 220 223 227 227 224 222 221 220 218 217 215 214 213 212 211 211 211 213 216 220 222 223 225 225 222 221 223 227 234 241 243 244 247 253 258 261 263 264 268 277 283 287 289 288 286 283 281 279 278 280 283 284 285 284 283 281 279 279 281 284 287 290 292 294 295 297 298 298 298 301 306
214 208 208 211 214 217 219 221 223 223 221 217 214 214 219 227 232 228 221 216 214 213 213 215 215 215 214 214 213 213 213 215 219 223 225 227 229 230 230 230 230 229 232 237 240 244 250 256 260 263 265 266 271 278 284 288 290 290 288 285 281 279 279 280 281 281 280 280 281 280 277 276 278 281 284 287 288 290 292 293 293 294 294 296 299
204 197 198 202 205 211 216 219 219 219 218 215 212 214 222 231 233 228 220 213 209 209 212 216 217 216 216 217 218 217 217 219 222 225 227 231 236 240 243 245 243 241 240 241 240 242 250 258 264 266 266 268 274 280 284 289 292 293 294 292 289 285 282 279 277 275 273 274 277 278 277 277 278 278 281 283 283 286 289 290 291 293 293 294 296
194 192 197 199 201 207 214 217 218 219 219 217 216 219 226 232 233 229 221 216 216 219 224 230 228 220 215 217 220 220 221 224 228 232 236 242 247 251 252 250 247 245 246 246 246 248 251 256 262 267 268 271 275 279 284 290 294 295 296 296 294 290 286 281 276 273 272 272 273 274 275 277 278 278 280 282 283 285 288 289 290 292 292 291 292
190 193 196 199 203 209 213 215 217 219 218 218 220 225 229 232 232 229 226 226 229 229 231 238 240 230 221 219 223 227 229 233 236 240 245 253 257 256 253 249 246 244 244 247 252 256 257 256 260 265 269 272 276 279 283 288 292 294 297 298 296 293 288 282 277 275 273 272 273 274 274 276 278 279 281 283 284 285 288 289 288 289 289 289 290
195 198 198 200 204 209 209 210 213 216 216 220 225 229 231 232 233 231 231 233 235 234 236 243 248 243 234 231 232 235 238 239 240 242 248 256 262 261 257 253 249 245 245 247 251 254 256 258 261 265 270 274 279 282 285 287 288 290 294 298 296 292 287 280 276 275 275 274 275 276 276 277 279 280 282 283 284 285 286 286 286 286 286 287 288
199 200 200 201 204 206 207 207 209 211 215 223 229 230 231 232 233 233 235 237 237 238 242 248 252 251 247 244 243 245 246 246 246 247 251 258 266 268 265 260 254 248 246 248 250 253 257 261 264 268 271 274 278 281 283 285 287 288 290 292 292 291 288 283 277 275 276 277 278 278 277 277 279 280 282 284 284 284 284 284 285 285 285 285 285
198 200 201 203 205 206 206 207 209 214 222 229 230 230 232 235 237 238 240 240 240 241 244 249 253 256 258 255 252 252 253 253 254 255 258 263 269 269 265 263 260 256 254 255 256 258 262 265 267 270 272 274 276 279 281 282 284 286 286 285 284 283 284 284 282 280 278 277 275 274 274 274 275 278 280 282 282 283 284 285 285 285 285 286 286